Location: CCZU
(31.6840°N, 119.9550°E)
Time: 18:27:38
(UTC+08:00)

Tiangong 2 - Pass Details

Date: 02 May 2019
Orbit: 379 x 387 km, 42.8° (Epoch: 21 May)

Event Time Altitude Azimuth Distance (km) Brightness Sun altitude
Exits shadow 03:24:31 21° 126° (SE) 918 3.1 -21.7°
Drops below altitude 10° 03:26:33 10° 87° (E) 1,399 4.7 -21.4°
Sets 03:28:54 0° 71° (ENE) 2,257 6.3 -21.0°
